[Iaude] MPEC F71: 2024 FH2 [a=0.92,e=0.56,i=16.1,H=22.2]

mpec at cfa.harvard.edu mpec at cfa.harvard.edu
Fri Mar 22 07:27:59 EDT 2024


M.P.E.C. 2024-F71                                Issued 2024 March 22, 11:26 UT

     The Minor Planet Electronic Circulars contain information on unusual
         minor planets, routine data on comets and natural satellites,
         and occasional editorial announcements.  They are published
    on behalf of Division F of the International Astronomical Union by the
          Minor Planet Center, Smithsonian Astrophysical Observatory,
                          Cambridge, MA 02138, U.S.A.
			  
             Prepared using the Tamkin Foundation Computer Network

                              MPC at CFA.HARVARD.EDU
            URL https://www.minorplanetcenter.net/    ISSN 1523-6714

                                    2024 FH2                                    


Observations:
     K24F02H*1C2024 03 20.32755715 35 55.295+06 49 55.42         20.97GVEF071G96
     K24F02H 1C2024 03 20.33269415 35 56.137+06 49 57.43         21.23GVEF071G96
     K24F02H 1C2024 03 20.33784815 35 56.998+06 50 01.28         20.55GVEF071G96
     K24F02H 1C2024 03 20.34299815 35 57.858+06 50 03.16         20.22GVEF071G96
     K24F02H KC2024 03 20.37354615 36 01.85 +06 50 15.0          20.4 GVEF071H21
     K24F02H KC2024 03 20.38247115 36 04.169+06 50 22.70         20.61GVEF071I52
     K24F02H KC2024 03 20.38651915 36 04.759+06 50 24.76         20.84GVEF071I52
     K24F02H KC2024 03 20.38853815 36 05.076+06 50 25.91         20.27GVEF071I52
     K24F02H KC2024 03 20.39041815 36 04.50 +06 50 22.4          20.3 GVEF071H21
     K24F02H KB2024 03 20.43257 15 36 11.510+06 50 43.15         20.2 RZEF071H36
     K24F02H KB2024 03 20.44442 15 36 13.397+06 50 48.62         21.0 RZEF071H36
     K24F02H KB2024 03 20.45627 15 36 15.238+06 50 54.06         20.2 RZEF071H36
     K24F02H KC2024 03 22.35672415 42 13.626+07 07 25.61               VEF071I52
     K24F02H KC2024 03 22.35892315 42 14.101+07 07 26.83         20.70GVEF071I52
     K24F02H KC2024 03 22.36166615 42 14.584+07 07 28.92         20.99GVEF071I52
     K24F02H KC2024 03 22.36444315 42 15.152+07 07 30.36         20.17GVEF071I52
     K24F02H  C2024 03 22.44731715 42 30.659+07 08 17.10         20.1 GVEF071H01
     K24F02H  C2024 03 22.45035515 42 31.225+07 08 18.88         20.3 GVEF071H01
     K24F02H  C2024 03 22.45865415 42 32.799+07 08 23.63         20.5 GVEF071H01
     K24F02H  C2024 03 22.47090515 42 35.121+07 08 30.46         20.6 GVEF071H01

Observer details:
G96 Mt. Lemmon Survey.  Observer G. J. Leonard.  Measurers T. Beuden, V. F.
    Carvajal, D. Fay, J. B. Fazekas, D. C. Fuls, A. R. Gibbs, A. D. Grauer, H.
    Groeller, J. K. Hogan, R. A. Kowalski, S. M. Larson, G. J. Leonard, D.
    Rankin, R. L. Seaman, F. C. Shelly, K. W. Wierzchos, G. J. Leonard.  1.5-m
    reflector + 10K CCD.
H01 Magdalena Ridge Observatory, Socorro.  Observers W. H. Ryan, E. V. Ryan.
    Measurers W. H. Ryan, W. H. Ryan, E. V. Ryan.  2.4-m f/8.9 Ritchey-
    Chretien + CCD.
H21 Astronomical Research Observatory, Westfield.  Observer R. Holmes.
    Measurers T. Linder, R. Holmes, L. Horn, R. Holmes.  0.76-m f/3.0
    astrograph + CCD.
H36 Sandlot Observatory, Scranton.  Observer G. Hug.  Measurers G. Hug, G.
    Hug.  0.56-m f/4.8 reflector + CMO.
I52 Steward Observatory, Mt. Lemmon Station.  Observers R. A. Kowalski, D.
    Rankin.  Measurers T. Beuden, V. F. Carvajal, D. Fay, J. B. Fazekas, D. C.
    Fuls, A. R. Gibbs, A. D. Grauer, H. Groeller, J. K. Hogan, R. A. Kowalski,
    S. M. Larson, G. J. Leonard, D. Rankin, R. L. Seaman, F. C. Shelly, K. W.
    Wierzchos, R. A. Kowalski, D. Rankin.  1.0-m prime focus + CCD.

Orbital elements:
2024 FH2                                                 Earth MOID = 0.0258 AU
Epoch 2024 Mar. 31.0 TT = JDT 2460400.5                 MPC                     
M 286.12850              (2000.0)            P               Q                  
n   1.11586839     Peri.  305.25060     +0.84465219     +0.52341482             
a   0.9205783      Node    23.80374     -0.35440545     +0.70392094             
e   0.5565177      Incl.   16.14763     -0.40119752     +0.48013773             
P   0.88           H   22.22          G   0.15           U   9                  
Residuals in seconds of arc
240320 G96  0.5-  0.3-    240320 I52  0.6-  0.2+    240322 I52  0.2-  0.3+
240320 G96  0.4-  0.9-    240320 H21  0.2-  0.2-    240322 I52  0.4+  0.1+
240320 G96  0.0   0.5+    240320 H36  0.1+  0.0     240322 H01  0.0   0.0
240320 G96  0.5+  0.2-    240320 H36  0.1+  0.2-    240322 H01  0.1-  0.0
240320 H21  0.3+  0.4+    240320 H36  0.7-  0.4-    240322 H01  0.0   0.1+
240320 I52  0.3+  0.0     240322 I52  0.4-  0.1-    240322 H01  0.0   0.1-
240320 I52  0.5-  0.1+    240322 I52  0.4+  0.2-

Ephemeris:
2024 FH2                 a,e,i = 0.92, 0.56, 16                  q = 0.4083
Date    TT    R. A. (2000) Decl.     Delta      r    Elong.  Phase     V
2024 02 21    14 45 49.2 +05 20 42   0.5513  1.3044   112.6    44.4    23.2
...
2024 03 07    15 08 34.1 +05 43 09   0.3705  1.2242   120.8    44.1    22.2
...
2024 03 15    15 23 03.2 +06 15 42   0.2766  1.1727   124.3    44.5    21.5
...
2024 03 21    15 37 51.8 +06 55 43   0.2078  1.1300   125.7    45.7    20.8
2024 03 22    15 41 00.5 +07 04 27   0.1965  1.1226   125.7    46.1    20.7
2024 03 23    15 44 26.9 +07 14 01   0.1853  1.1150   125.7    46.5    20.6
...
2024 03 29    16 16 13.0 +08 39 05   0.1193  1.0674   122.6    52.0    19.7
...
2024 04 06    19 13 26.2 +12 57 35   0.04634 0.9980    85.4    92.0    18.8
...
2024 04 21    01 57 32.0 -01 10 50   0.1603  0.8494    13.0   164.5    30.8

A. U. Tomatic                (C) Copyright 2024 MPC           M.P.E.C. 2024-F71





More information about the Iaude mailing list